Date,TemperatureHighF,TemperatureAvgF,TemperatureLowF,DewpointHighF,DewpointAvgF,DewpointLowF,HumidityHigh,HumidityAvg,HumidityLow,PressureMaxIn,PressureMinIn,WindSpeedMaxMPH,WindSpeedAvgMPH,GustSpeedMaxMPH,PrecipitationSumIn
2013-1-2,48.7,47.3,45.7,36.1,34.1,32.2,69,60,53,30.19,30.12,12,8,15,0.00
2013-1-6,46.3,45.8,45.4,42.6,42.1,41.3,88,87,85,30.13,30.13,4,3,4,0.10
2013-1-8,52.0,50.8,49.1,46.3,44.9,43.1,85,80,72,30.14,30.11,11,4,11,0.00
2013-1-19,55.1,54.5,53.4,37.3,36.2,34.7,52,50,48,30.15,30.13,12,11,13,0.00
2013-2-1,58.6,54.4,45.1,46.5,44.9,42.9,96,71,59,30.19,30.10,11,6,17,0.00
2013-2-9,46.0,46.0,46.0,32.0,32.0,32.0,58,58,58,30.01,30.01,2,2,2,0.00
2013-2-12,54.0,49.0,42.9,46.2,43.0,36.5,99,81,55,30.33,30.28,6,3,8,0.00
2013-2-25,52.1,51.4,50.9,42.2,41.8,41.1,72,70,66,30.17,30.17,3,1,3,0.00
2013-3-1,64.0,62.1,57.3,52.5,49.5,46.9,84,64,57,30.35,30.22,6,3,11,0.00
2013-3-8,55.6,50.0,45.3,47.1,43.7,40.1,82,79,73,29.91,29.85,5,4,7,0.00
2013-3-17,53.7,53.7,53.7,44.5,44.5,44.5,71,71,71,30.11,30.11,3,3,3,0.00
2013-3-22,58.9,56.1,52.3,44.6,38.8,31.9,65,53,38,30.06,30.01,4,2,0,0.00
2013-3-23,59.3,52.5,51.1,40.5,33.9,22.6,60,50,25,30.08,30.04,8,5,2,0.00
2013-3-30,52.0,51.7,51.4,51.7,51.2,50.6,99,98,96,30.01,29.97,7,3,0,0.10
2013-3-31,55.9,52.4,49.9,55.1,51.9,49.9,100,98,89,30.05,29.96,7,3,5,0.12
2013-4-8,46.9,46.9,46.9,34.1,34.1,34.1,61,61,61,29.91,29.91,8,8,8,0.00
2013-4-17,56.5,56.5,56.5,31.8,31.8,31.8,39,39,39,30.25,30.25,9,9,13,0.00
2013-4-26,56.8,53.0,48.5,51.0,49.0,46.8,95,87,80,30.21,30.15,3,2,4,0.00
2013-5-1,73.2,57.9,50.8,50.4,43.7,29.7,86,65,20,30.05,29.99,8,6,9,0.00
2013-5-16,50.5,49.9,49.5,49.7,48.4,47.3,97,95,91,29.97,29.94,5,4,8,0.00
2013-6-1,69.2,69.2,69.2,52.8,52.8,52.8,56,56,56,29.86,29.86,4,4,4,0.00
2013-6-9,53.5,53.4,53.3,53.5,53.4,53.3,100,100,100,29.84,29.84,6,6,8,0.00
2013-6-15,52.4,49.7,48.1,50.4,48.7,48.1,100,96,92,29.97,29.91,19,4,19,0.00
2013-7-1,57.0,56.2,55.4,54.4,54.3,54.0,95,93,91,29.80,29.80,8,7,8,0.00
2013-7-16,55.2,53.8,51.5,54.9,53.7,51.5,100,100,99,29.99,29.96,7,2,8,0.03
2013-7-28,51.9,51.9,51.9,51.9,51.9,51.9,100,100,100,29.85,29.85,5,4,6,0.00
2013-8-4,52.0,51.8,51.6,52.0,51.7,51.5,100,100,99,29.98,29.95,3,2,5,0.00
2013-10-1,62.6,61.5,60.2,51.3,50.1,48.9,72,66,62,29.92,29.90,4,1,5,0.00
2013-10-10,51.2,49.9,48.6,48.7,48.0,47.2,95,93,91,29.92,29.90,3,2,3,0.00
2013-11-3,55.6,53.4,50.3,41.7,37.0,32.4,69,54,43,29.92,29.90,6,4,6,0.00
2013-11-4,64.7,57.0,48.9,41.0,32.7,26.8,74,41,26,30.03,29.89,13,5,17,0.00
2013-11-5,65.9,60.7,54.4,37.7,34.8,31.0,53,38,32,30.18,30.03,14,4,19,0.00
2013-11-6,62.9,59.3,53.6,40.3,38.4,35.3,54,46,38,30.22,30.13,14,8,16,0.00
2013-11-7,66.4,60.7,53.5,49.4,42.8,37.4,86,53,40,30.14,30.04,7,2,11,0.00
2013-11-8,65.6,56.4,48.3,54.2,49.4,40.5,98,78,54,30.05,29.93,13,3,15,0.00
2013-11-11,60.0,56.5,51.0,53.2,48.4,43.8,93,75,61,30.14,30.07,3,1,4,0.01
2013-11-12,64.5,59.2,53.8,53.3,49.6,46.3,80,71,60,30.24,30.14,11,1,13,0.00
2013-11-13,66.2,56.9,49.3,56.3,51.8,47.6,99,84,66,30.22,30.07,6,3,7,0.00
2013-11-14,61.3,55.0,48.7,53.6,47.1,37.9,100,78,44,30.08,29.86,9,3,13,0.00
2013-11-18,53.0,50.5,48.6,48.9,40.4,-99.9,98,81,44,30.13,30.06,8,2,11,0.01
2013-11-19,54.4,51.9,49.1,54.4,49.8,6.8,100,94,17,30.08,29.90,8,3,11,0.58
2013-11-20,54.2,52.4,47.7,54.2,49.3,-99.9,100,98,100,29.91,29.81,6,2,15,0.81
2013-11-21,56.2,50.8,46.0,48.1,39.9,24.6,100,72,30,29.94,29.87,19,8,35,0.01
2013-11-24,55.8,53.4,51.5,44.9,40.7,37.7,73,62,53,30.22,30.15,2,0,3,0.00
2013-11-25,55.9,51.2,45.2,45.4,43.1,40.7,85,74,58,30.29,30.22,13,7,13,0.00
2013-11-26,54.0,51.1,47.9,43.8,41.7,39.3,79,70,63,30.24,30.01,14,9,17,0.00
2013-11-27,56.4,52.4,48.1,45.2,43.6,41.1,81,72,65,30.01,29.83,14,10,18,0.00
2013-11-28,61.9,57.4,52.7,46.0,42.3,39.5,68,58,45,30.04,29.84,15,5,15,0.00
2013-11-29,62.1,57.3,53.1,51.4,44.0,40.2,81,62,48,30.18,30.04,8,2,9,0.00
2013-11-30,59.8,55.1,48.6,49.9,46.2,43.6,91,73,57,30.24,30.17,6,1,8,0.00
2013-12-1,63.5,58.2,50.4,49.1,46.1,43.5,88,65,54,30.31,30.19,7,2,9,0.00
2013-12-2,60.1,52.8,45.4,52.4,48.5,44.3,98,86,59,30.20,29.93,5,2,6,0.00
2013-12-3,52.3,47.3,44.5,51.8,36.2,25.2,98,66,46,29.92,29.82,11,4,16,0.00
2013-12-4,46.6,42.4,40.2,30.6,23.5,17.5,67,47,38,30.06,29.91,11,6,20,0.00
2013-12-5,42.9,39.4,36.3,28.8,20.3,12.8,65,47,29,30.14,30.05,10,5,11,0.00
2013-12-9,37.0,36.8,36.5,29.8,29.4,29.0,75,74,74,30.39,30.38,9,9,14,0.00
2013-12-10,47.2,41.0,34.4,30.6,27.5,22.8,82,60,38,30.38,30.19,18,10,28,0.00
2013-12-11,48.0,43.8,37.3,33.4,30.8,25.0,81,61,44,30.22,30.16,18,11,20,0.00
2013-12-12,52.8,46.3,41.7,37.5,34.0,31.6,72,63,45,30.23,30.15,16,8,19,0.00
2013-12-13,53.8,47.3,40.8,44.5,38.4,29.7,98,74,40,30.30,30.20,4,2,6,0.00
2013-12-14,50.5,48.2,45.5,41.8,38.6,35.8,82,69,63,30.36,30.28,10,4,19,0.00
2013-12-22,58.1,56.8,55.5,39.5,38.7,37.6,52,51,49,30.26,30.18,5,2,6,0.00
2013-12-23,57.2,52.3,47.2,40.8,39.0,36.8,68,61,52,30.35,30.25,15,8,17,0.00
2013-12-24,62.3,56.5,49.3,43.5,41.3,39.0,70,57,45,30.31,30.18,14,5,16,0.00
2013-12-25,59.8,54.2,48.3,41.7,39.1,36.0,73,57,44,30.25,30.17,21,11,25,0.00
2013-12-26,58.7,55.6,51.6,40.2,36.5,32.2,64,49,40,30.22,30.14,20,12,23,0.00
2013-12-27,54.6,52.0,48.2,39.9,37.9,33.1,72,59,44,30.19,30.10,17,11,20,0.00
2013-12-28,61.1,54.4,44.2,42.7,33.7,25.0,70,47,25,30.12,30.01,12,4,17,0.00
2013-12-29,59.7,54.8,50.0,35.4,26.3,20.9,57,34,24,30.14,30.06,15,10,24,0.00
2013-12-30,56.7,49.6,45.1,46.1,39.2,35.2,98,68,52,30.22,30.13,19,7,19,0.00
2013-12-31,53.9,49.3,45.5,43.3,39.6,34.0,84,70,48,30.23,30.15,7,3,8,0.00